Mojave, CA

1:08 AM PST on December 11, 2019 (GMT -0800)
Mojave

Weather History for KMHV - May, 2019

Change the Weather History Date:

Wednesday, May 22, 2019

  Actual Average Record
Temperature  
Mean Temperature 52 °F -  
Max Temperature 57 °F 83 °F 100 °F (1967)
Min Temperature 46 °F 58 °F 41 °F (1971)
Degree Days  
Heating Degree Days 14    
Growing Degree Days 2 (Base 50)    
Moisture  
Dew Point 37 °F    
Average Humidity 60    
Maximum Humidity 82    
Minimum Humidity 47    
Precipitation  
Precipitation 0.02 in - - ()
Sea Level Pressure  
Sea Level Pressure 29.70 in    
Wind  
Wind Speed 30 mph (WNW)    
Max Wind Speed 46 mph    
Max Gust Speed 62 mph    
Visibility 10 miles    
Events Thunderstorm    
Averages and records for this station are not official NWS values.
T = Trace of Precipitation, MM = Missing Value Source: NWS Daily Summary

Daily Weather History Graph

Daily Weather History Graph

Search for Another Location

Airport or City:

Astronomy

May. 22, 2019 Rise Set
Actual Time 5:44 AM PDT 7:54 PM PDT
Civil Twilight 5:15 AM PDT 8:23 PM PDT
Nautical Twilight 4:40 AM PDT 8:58 PM PDT
Astronomical Twilight 4:03 AM PDT 9:36 PM PDT
Moon 11:41 PM PDT (5/22) 8:58 AM PDT (5/22)
Length of Visible Light 15h 07m
Length of Day
14h 10m
Waning Gibbous, 84% of the Moon is Illuminated
May 22
Waning Gibbous
May 26
Last Quarter
Jun 3
New
Jun 9
First Quarter
Jun 17
Full

Hourly Weather History & Observations

Time (PDT) Temp. Windchill Dew Point Humidity Pressure Visibility Wind Dir Wind Speed Gust Speed Precip Events Conditions
12:00 AM 50.0 °F - 33.8 °F 54% 29.66 in 10.0 mi WNW 39.1 mph 48.3 mph N/A   Clear
12:20 AM 50.0 °F - 33.8 °F 54% 29.65 in 10.0 mi WNW 33.4 mph 49.5 mph N/A   Clear
12:40 AM 50.0 °F - 35.6 °F 58% 29.65 in 10.0 mi WNW 40.3 mph 51.8 mph N/A   Clear
1:00 AM 48.2 °F - 35.6 °F 62% 29.64 in 10.0 mi WNW 44.9 mph 55.2 mph N/A   Clear
1:20 AM 48.2 °F - 35.6 °F 62% 29.65 in 10.0 mi WNW 39.1 mph 50.6 mph N/A   Clear
1:40 AM 48.2 °F - 35.6 °F 62% 29.64 in 10.0 mi WNW 46.0 mph 55.2 mph N/A   Clear
2:00 AM 48.2 °F - 35.6 °F 62% 29.64 in 10.0 mi WNW 41.4 mph 56.4 mph N/A   Clear
2:20 AM 48.2 °F - 35.6 °F 62% 29.64 in 10.0 mi WNW 36.8 mph 51.8 mph N/A   Clear
2:40 AM 48.2 °F - 35.6 °F 62% 29.64 in 10.0 mi NW 36.8 mph 48.3 mph N/A   Clear
3:00 AM 48.2 °F - 33.8 °F 58% 29.64 in 10.0 mi NW 33.4 mph 47.2 mph N/A   Clear
3:20 AM 48.2 °F - 35.6 °F 62% 29.63 in 10.0 mi NW 34.5 mph 56.4 mph N/A   Clear
3:40 AM 48.2 °F - 35.6 °F 62% 29.64 in 10.0 mi NW 28.8 mph 43.7 mph N/A   Clear
4:00 AM 46.4 °F 38.1 °F 35.6 °F 66% 29.64 in 10.0 mi NW 24.2 mph 52.9 mph N/A   Clear
4:20 AM 46.4 °F 37.9 °F 35.6 °F 66% 29.63 in 10.0 mi NW 25.3 mph 44.9 mph N/A   Clear
4:40 AM 46.4 °F 37.5 °F 35.6 °F 66% 29.63 in 10.0 mi NW 27.6 mph 48.3 mph N/A   Clear
5:00 AM 46.4 °F 35.6 °F 35.6 °F 66% 29.63 in 10.0 mi NW 42.6 mph 62.1 mph N/A   Clear
5:20 AM 46.4 °F 35.8 °F 33.8 °F 62% 29.63 in 10.0 mi WNW 40.3 mph 50.6 mph N/A   Clear
5:40 AM 46.4 °F 36.3 °F 33.8 °F 62% 29.63 in 10.0 mi WNW 36.8 mph 46.0 mph N/A   Clear
6:00 AM 46.4 °F 37.4 °F 33.8 °F 62% 29.65 in 10.0 mi NW 28.8 mph 43.7 mph N/A   Partly Cloudy
6:20 AM 46.4 °F 37.2 °F 33.8 °F 62% 29.65 in 10.0 mi NW 29.9 mph 47.2 mph N/A   Partly Cloudy
6:40 AM 46.4 °F 38.1 °F 33.8 °F 62% 29.66 in 10.0 mi NW 24.2 mph 41.4 mph N/A   Clear
7:00 AM 48.2 °F - 33.8 °F 58% 29.67 in 10.0 mi WNW 26.5 mph 40.3 mph N/A   Clear
7:20 AM 48.2 °F - 33.8 °F 58% 29.68 in 10.0 mi NW 20.7 mph 43.7 mph N/A   Partly Cloudy
7:40 AM 50.0 °F - 33.8 °F 54% 29.68 in 10.0 mi WNW 28.8 mph 34.5 mph N/A   Partly Cloudy
8:00 AM 51.8 °F - 33.8 °F 50% 29.69 in 10.0 mi WNW 23.0 mph 31.1 mph N/A   Clear
8:20 AM 50.0 °F - 33.8 °F 54% 29.70 in 10.0 mi NW 21.9 mph 34.5 mph N/A   Mostly Cloudy
8:40 AM 50.0 °F - 35.6 °F 58% 29.71 in 10.0 mi WNW 23.0 mph 34.5 mph N/A   Overcast
9:00 AM 50.0 °F - 35.6 °F 58% 29.71 in 10.0 mi WNW 19.6 mph 29.9 mph N/A   Scattered Clouds
9:20 AM 50.0 °F - 35.6 °F 58% 29.71 in 10.0 mi WNW 26.5 mph - N/A   Scattered Clouds
9:40 AM 50.0 °F - 35.6 °F 58% 29.72 in 10.0 mi WNW 21.9 mph 33.4 mph N/A   Mostly Cloudy
10:00 AM 51.8 °F - 35.6 °F 54% 29.72 in 10.0 mi WNW 18.4 mph 31.1 mph N/A   Scattered Clouds
10:20 AM 51.8 °F - 35.6 °F 54% 29.72 in 10.0 mi WNW 20.7 mph - N/A   Partly Cloudy
10:40 AM 53.6 °F - 35.6 °F 51% 29.73 in 10.0 mi WNW 21.9 mph 28.8 mph N/A   Partly Cloudy
11:00 AM 55.4 °F - 35.6 °F 47% 29.73 in 10.0 mi WNW 17.3 mph 26.5 mph N/A   Clear
11:20 AM 53.6 °F - 35.6 °F 51% 29.74 in 10.0 mi NW 16.1 mph 23.0 mph N/A   Partly Cloudy
11:40 AM 50.0 °F - 42.8 °F 76% 29.76 in 10.0 mi NNE 15.0 mph 21.9 mph N/A   Mostly Cloudy
12:00 PM 48.2 °F - 42.8 °F 82% 29.76 in 10.0 mi NE 11.5 mph 18.4 mph N/A   Overcast
12:20 PM 48.2 °F - 42.8 °F 82% 29.77 in 10.0 mi North 21.9 mph - N/A   Overcast
12:40 PM 46.4 °F 42.9 °F 41.0 °F 81% 29.78 in 10.0 mi NNW 6.9 mph - N/A   Overcast
1:00 PM 46.4 °F 39.8 °F 41.0 °F 81% 29.77 in 10.0 mi West 16.1 mph 21.9 mph 0.02 in   Mostly Cloudy
1:20 PM 48.2 °F - 41.0 °F 76% 29.76 in 10.0 mi West 18.4 mph - N/A   Partly Cloudy
1:40 PM 50.0 °F - 41.0 °F 71% 29.75 in 10.0 mi WNW 19.6 mph 26.5 mph N/A   Clear
2:00 PM 53.6 °F - 41.0 °F 62% 29.75 in 10.0 mi WNW 19.6 mph - N/A   Clear
2:20 PM 53.6 °F - 39.2 °F 58% 29.75 in 10.0 mi WNW 17.3 mph 25.3 mph N/A   Clear
2:40 PM 53.6 °F - 39.2 °F 58% 29.74 in 10.0 mi WNW 20.7 mph 28.8 mph N/A Thunderstorm Scattered Clouds
3:00 PM 55.4 °F - 39.2 °F 54% 29.73 in 10.0 mi WNW 26.5 mph 33.4 mph N/A   Scattered Clouds
3:20 PM 55.4 °F - 39.2 °F 54% 29.73 in 10.0 mi WNW 24.2 mph 32.2 mph N/A   Partly Cloudy
3:40 PM 55.4 °F - 39.2 °F 54% 29.72 in 10.0 mi West 24.2 mph 31.1 mph N/A   Clear
4:00 PM 57.2 °F - 39.2 °F 51% 29.70 in 10.0 mi WNW 25.3 mph 41.4 mph N/A   Clear
4:20 PM 57.2 °F - 39.2 °F 51% 29.70 in 10.0 mi WNW 27.6 mph 40.3 mph N/A   Clear
4:40 PM 57.2 °F - 37.4 °F 48% 29.69 in 10.0 mi WNW 31.1 mph 42.6 mph N/A   Clear
5:00 PM 57.2 °F - 37.4 °F 48% 29.68 in 10.0 mi WNW 38.0 mph 43.7 mph N/A   Clear
5:20 PM 55.4 °F - 37.4 °F 51% 29.69 in 10.0 mi NW 33.4 mph 43.7 mph N/A   Clear
5:40 PM 55.4 °F - 37.4 °F 51% 29.70 in 10.0 mi WNW 31.1 mph 42.6 mph N/A   Clear
6:00 PM 53.6 °F - 39.2 °F 58% 29.70 in 10.0 mi NW 31.1 mph 49.5 mph N/A   Partly Cloudy
6:20 PM 51.8 °F - 39.2 °F 62% 29.70 in 10.0 mi WNW 31.1 mph 40.3 mph N/A   Partly Cloudy
6:40 PM 51.8 °F - 39.2 °F 62% 29.71 in 10.0 mi WNW 28.8 mph 40.3 mph N/A   Mostly Cloudy
7:00 PM 51.8 °F - 39.2 °F 62% 29.71 in 10.0 mi WNW 31.1 mph 38.0 mph N/A   Partly Cloudy
7:20 PM 51.8 °F - 39.2 °F 62% 29.71 in 10.0 mi WNW 31.1 mph 39.1 mph N/A   Partly Cloudy
7:40 PM 51.8 °F - 39.2 °F 62% 29.72 in 10.0 mi NW 26.5 mph 41.4 mph N/A   Clear
8:00 PM 51.8 °F - 39.2 °F 62% 29.72 in 10.0 mi WNW 26.5 mph 39.1 mph N/A   Scattered Clouds
8:20 PM 51.8 °F - 39.2 °F 62% 29.73 in 10.0 mi WNW 27.6 mph - N/A   Overcast
8:40 PM 51.8 °F - 37.4 °F 58% 29.74 in 10.0 mi WNW 27.6 mph 33.4 mph N/A   Overcast
9:00 PM 51.8 °F - 39.2 °F 62% 29.75 in 10.0 mi WNW 21.9 mph 29.9 mph N/A   Overcast
9:20 PM 51.8 °F - 37.4 °F 58% 29.75 in 10.0 mi WNW 29.9 mph - N/A   Overcast
9:40 PM 51.8 °F - 37.4 °F 58% 29.76 in 10.0 mi WNW 25.3 mph 35.7 mph N/A   Overcast
10:00 PM 51.8 °F - 37.4 °F 58% 29.77 in 10.0 mi WNW 17.3 mph 35.7 mph N/A   Overcast
10:20 PM 51.8 °F - 37.4 °F 58% 29.78 in 10.0 mi WNW 12.7 mph 36.8 mph N/A   Overcast
10:40 PM 51.8 °F - 37.4 °F 58% 29.77 in 10.0 mi NW 18.4 mph 35.7 mph N/A   Overcast
11:00 PM 51.8 °F - 39.2 °F 62% 29.76 in 10.0 mi WNW 25.3 mph 32.2 mph N/A   Mostly Cloudy
11:20 PM 51.8 °F - 37.4 °F 58% 29.77 in 10.0 mi WNW 15.0 mph 36.8 mph N/A   Mostly Cloudy
11:40 PM 51.8 °F - 39.2 °F 62% 29.76 in 10.0 mi NW 25.3 mph 32.2 mph N/A   Overcast